DAL2293 KLAS-KLAX

Flight info

Callsign DAL2293
Flight time 0h 46m
Altitude 28000
Route RADYR2 BLAQQ SHTNR ANJLL4
Aircraft B739/M-SDE2E3FGHIRWXY/LB1

Departure

Time 2026-05-04 23:21
Airport Harry Reid International Airport (KLAS)

Arrival

Time 2026-05-05 00:08
Airport Los Angeles International Airport (KLAX)
Time Latitude Longitude Altitude Speed Heading
2026-05-04 22:56 36.08048 -115.13881 2092 ft 0 kts 345°
2026-05-04 23:07 36.08029 -115.13874 2095 ft 4 kts 343°
2026-05-04 23:07 36.08004 -115.13864 2095 ft 4 kts 338°
2026-05-04 23:07 36.07986 -115.13853 2095 ft 2 kts 311°
2026-05-04 23:07 36.07981 -115.13840 2094 ft 2 kts 248°
2026-05-04 23:08 36.07986 -115.13829 2095 ft 2 kts 232°
2026-05-04 23:08 36.07993 -115.13818 2095 ft 2 kts 227°
2026-05-04 23:08 36.07999 -115.13811 2096 ft 0 kts 226°
2026-05-04 23:12 36.07997 -115.13813 2095 ft 1 kts 226°
2026-05-04 23:12 36.07987 -115.13826 2094 ft 3 kts 226°
2026-05-04 23:12 36.07967 -115.13851 2092 ft 4 kts 225°
2026-05-04 23:13 36.07946 -115.13877 2092 ft 4 kts 225°
2026-05-04 23:13 36.07927 -115.13901 2092 ft 0 kts 225°
2026-05-04 23:13 36.07926 -115.13901 2092 ft 0 kts 225°
2026-05-04 23:14 36.07916 -115.13914 2092 ft 5 kts 225°
2026-05-04 23:14 36.07888 -115.13944 2092 ft 6 kts 211°
2026-05-04 23:14 36.07852 -115.13946 2092 ft 5 kts 161°
2026-05-04 23:14 36.07830 -115.13912 2092 ft 6 kts 104°
2026-05-04 23:15 36.07828 -115.13859 2092 ft 7 kts 90°
2026-05-04 23:15 36.07828 -115.13784 2092 ft 10 kts 89°
2026-05-04 23:15 36.07828 -115.13685 2091 ft 13 kts 90°
2026-05-04 23:15 36.07827 -115.13572 2091 ft 13 kts 90°
2026-05-04 23:16 36.07826 -115.13462 2090 ft 13 kts 91°
2026-05-04 23:16 36.07823 -115.13356 2088 ft 12 kts 92°
2026-05-04 23:16 36.07823 -115.13252 2086 ft 12 kts 87°
2026-05-04 23:16 36.07827 -115.13144 2083 ft 13 kts 88°
2026-05-04 23:17 36.07828 -115.13027 2076 ft 15 kts 90°
2026-05-04 23:17 36.07828 -115.12893 2072 ft 16 kts 89°
2026-05-04 23:17 36.07827 -115.12750 2066 ft 17 kts 91°
2026-05-04 23:17 36.07828 -115.12601 2061 ft 17 kts 90°
2026-05-04 23:18 36.07828 -115.12449 2056 ft 19 kts 90°
2026-05-04 23:18 36.07828 -115.12295 2053 ft 16 kts 92°
2026-05-04 23:18 36.07771 -115.12181 2049 ft 12 kts 128°
2026-05-04 23:18 36.07741 -115.12137 2048 ft 0 kts 138°
2026-05-04 23:19 36.07740 -115.12136 2048 ft 0 kts 138°
2026-05-04 23:19 36.07739 -115.12136 2047 ft 1 kts 139°
2026-05-04 23:19 36.07729 -115.12127 2047 ft 4 kts 150°
2026-05-04 23:19 36.07691 -115.12124 2048 ft 7 kts 179°
2026-05-04 23:20 36.07645 -115.12145 2049 ft 8 kts 249°
2026-05-04 23:20 36.07643 -115.12192 2048 ft 3 kts 270°
2026-05-04 23:20 36.07643 -115.12256 2050 ft 22 kts 269°
2026-05-04 23:20 36.07641 -115.12739 2068 ft 89 kts 270°
2026-05-04 23:21 36.07641 -115.13769 2092 ft 146 kts 270°
2026-05-04 23:21 36.07633 -115.15176 2196 ft 180 kts 266°
2026-05-04 23:21 36.07673 -115.16708 2945 ft 175 kts 266°
2026-05-04 23:21 36.07707 -115.18147 3796 ft 162 kts 265°
2026-05-04 23:22 36.07712 -115.19529 4467 ft 161 kts 264°
2026-05-04 23:22 36.07606 -115.20989 4674 ft 181 kts 256°
2026-05-04 23:22 36.07377 -115.22587 4874 ft 198 kts 255°
2026-05-04 23:22 36.07049 -115.24295 4994 ft 215 kts 243°
2026-05-04 23:23 36.06153 -115.25836 5130 ft 228 kts 221°
2026-05-04 23:23 36.04767 -115.26902 5279 ft 242 kts 201°
2026-05-04 23:23 36.03150 -115.27641 5543 ft 257 kts 200°
2026-05-04 23:23 36.01490 -115.28385 6222 ft 259 kts 199°
2026-05-04 23:24 35.99797 -115.29150 6979 ft 258 kts 199°
2026-05-04 23:24 35.98067 -115.29791 7616 ft 260 kts 192°
2026-05-04 23:24 35.96303 -115.30234 8241 ft 264 kts 191°
2026-05-04 23:24 35.94486 -115.30652 8880 ft 267 kts 191°
2026-05-04 23:25 35.92639 -115.31077 9509 ft 270 kts 191°
2026-05-04 23:25 35.90785 -115.31510 10118 ft 272 kts 191°
2026-05-04 23:25 35.88902 -115.31958 10403 ft 289 kts 192°
2026-05-04 23:25 35.86854 -115.32451 10566 ft 308 kts 192°
2026-05-04 23:26 35.84684 -115.32977 10714 ft 327 kts 192°
2026-05-04 23:26 35.82388 -115.33537 10846 ft 345 kts 192°
2026-05-04 23:26 35.80016 -115.34116 11096 ft 357 kts 192°
2026-05-04 23:26 35.77593 -115.34708 11529 ft 362 kts 192°
2026-05-04 23:27 35.75114 -115.35314 12105 ft 364 kts 192°
2026-05-04 23:27 35.72616 -115.35925 12669 ft 367 kts 193°
2026-05-04 23:27 35.70103 -115.36540 13221 ft 370 kts 193°
2026-05-04 23:27 35.67560 -115.37162 13767 ft 373 kts 193°
2026-05-04 23:28 35.65037 -115.37778 14267 ft 375 kts 193°
2026-05-04 23:28 35.62478 -115.38403 14841 ft 376 kts 194°
2026-05-04 23:28 35.59873 -115.38849 15404 ft 381 kts 184°
2026-05-04 23:28 35.57206 -115.38670 15971 ft 385 kts 180°
2026-05-04 23:29 35.54527 -115.38396 16483 ft 388 kts 180°
2026-05-04 23:29 35.51817 -115.38154 16975 ft 390 kts 181°
2026-05-04 23:29 35.49139 -115.37951 17463 ft 392 kts 182°
2026-05-04 23:29 35.46407 -115.37763 17951 ft 393 kts 184°
2026-05-04 23:30 35.43725 -115.38079 18368 ft 385 kts 200°
2026-05-04 23:30 35.41259 -115.39274 18841 ft 379 kts 211°
2026-05-04 23:30 35.38929 -115.40771 19292 ft 378 kts 212°
2026-05-04 23:30 35.36611 -115.42297 19781 ft 378 kts 212°
2026-05-04 23:31 35.34297 -115.43819 20233 ft 379 kts 212°
2026-05-04 23:31 35.31969 -115.45336 20671 ft 380 kts 212°
2026-05-04 23:31 35.29641 -115.46838 21108 ft 381 kts 212°
2026-05-04 23:31 35.27288 -115.48346 21541 ft 382 kts 212°
2026-05-04 23:32 35.24932 -115.49851 21983 ft 383 kts 212°
2026-05-04 23:32 35.22553 -115.51367 22397 ft 384 kts 212°
2026-05-04 23:32 35.20204 -115.52863 22813 ft 385 kts 212°
2026-05-04 23:32 35.17816 -115.54383 23223 ft 386 kts 213°
2026-05-04 23:33 35.15433 -115.55899 23613 ft 387 kts 213°
2026-05-04 23:33 35.13050 -115.57466 23945 ft 385 kts 217°
2026-05-04 23:33 35.11035 -115.59481 24518 ft 372 kts 228°
2026-05-04 23:33 35.09268 -115.61752 25174 ft 365 kts 229°
2026-05-04 23:34 35.07530 -115.64011 25649 ft 363 kts 229°
2026-05-04 23:34 35.05801 -115.66254 26078 ft 363 kts 229°
2026-05-04 23:34 35.04089 -115.68466 26512 ft 361 kts 228°
2026-05-04 23:34 35.02354 -115.70695 27014 ft 358 kts 228°
2026-05-04 23:35 35.00653 -115.72874 27481 ft 357 kts 228°
2026-05-04 23:35 34.98943 -115.75059 27896 ft 356 kts 228°
2026-05-04 23:35 34.97229 -115.77247 27935 ft 357 kts 228°
2026-05-04 23:35 34.95511 -115.79436 27955 ft 355 kts 228°
2026-05-04 23:36 34.93795 -115.81620 27955 ft 355 kts 228°
2026-05-04 23:36 34.92106 -115.83770 27965 ft 356 kts 228°
2026-05-04 23:36 34.90390 -115.85951 27965 ft 356 kts 228°
2026-05-04 23:36 34.88686 -115.88117 27963 ft 357 kts 228°
2026-05-04 23:37 34.86960 -115.90309 27956 ft 357 kts 228°
2026-05-04 23:37 34.85251 -115.92478 27952 ft 357 kts 228°
2026-05-04 23:37 34.83521 -115.94672 27951 ft 358 kts 228°
2026-05-04 23:37 34.81801 -115.96853 27959 ft 358 kts 228°
2026-05-04 23:38 34.80078 -115.99036 27926 ft 357 kts 227°
2026-05-04 23:38 34.78349 -116.01224 27955 ft 356 kts 227°
2026-05-04 23:38 34.76656 -116.03367 27938 ft 355 kts 227°
2026-05-04 23:38 34.74937 -116.05555 27935 ft 355 kts 227°
2026-05-04 23:39 34.73228 -116.07733 27940 ft 355 kts 227°
2026-05-04 23:39 34.71528 -116.09900 27947 ft 354 kts 227°
2026-05-04 23:39 34.69843 -116.12046 27935 ft 354 kts 227°
2026-05-04 23:39 34.68123 -116.14235 27930 ft 353 kts 227°
2026-05-04 23:40 34.66449 -116.16364 27938 ft 353 kts 227°
2026-05-04 23:40 34.64748 -116.18526 27933 ft 353 kts 228°
2026-05-04 23:40 34.63052 -116.20679 27942 ft 352 kts 227°
2026-05-04 23:40 34.61352 -116.22838 27940 ft 353 kts 227°
2026-05-04 23:41 34.59672 -116.25010 27928 ft 352 kts 228°
2026-05-04 23:41 34.57976 -116.27159 27926 ft 352 kts 227°
2026-05-04 23:41 34.56292 -116.29277 27937 ft 351 kts 227°
2026-05-04 23:41 34.54591 -116.31419 27930 ft 351 kts 227°
2026-05-04 23:42 34.52895 -116.33556 27940 ft 352 kts 227°
2026-05-04 23:42 34.51195 -116.35702 27927 ft 352 kts 227°
2026-05-04 23:42 34.49494 -116.37850 27939 ft 352 kts 227°
2026-05-04 23:42 34.47811 -116.39976 27917 ft 353 kts 227°
2026-05-04 23:43 34.46103 -116.42134 27918 ft 353 kts 227°
2026-05-04 23:43 34.44393 -116.44290 27912 ft 353 kts 227°
2026-05-04 23:43 34.42696 -116.46433 27918 ft 352 kts 228°
2026-05-04 23:43 34.41223 -116.48762 27924 ft 353 kts 238°
2026-05-04 23:44 34.40083 -116.51421 27919 ft 354 kts 241°
2026-05-04 23:44 34.39011 -116.54089 27902 ft 345 kts 241°
2026-05-04 23:44 34.38002 -116.56605 27907 ft 328 kts 241°
2026-05-04 23:44 34.37019 -116.59032 27910 ft 312 kts 240°
2026-05-04 23:45 34.36057 -116.61381 27649 ft 314 kts 240°
2026-05-04 23:45 34.35148 -116.63583 27441 ft 309 kts 240°
2026-05-04 23:45 34.34193 -116.65895 27047 ft 305 kts 240°
2026-05-04 23:45 34.33250 -116.68183 26566 ft 303 kts 240°
2026-05-04 23:46 34.32325 -116.70469 26112 ft 300 kts 241°
2026-05-04 23:46 34.31426 -116.72710 25682 ft 297 kts 241°
2026-05-04 23:46 34.30525 -116.74957 25285 ft 297 kts 241°
2026-05-04 23:46 34.29621 -116.77207 24814 ft 296 kts 241°
2026-05-04 23:47 34.28719 -116.79451 24383 ft 294 kts 242°
2026-05-04 23:47 34.27831 -116.81658 23961 ft 293 kts 242°
2026-05-04 23:47 34.26934 -116.83884 23544 ft 292 kts 242°
2026-05-04 23:47 34.26052 -116.86069 23035 ft 291 kts 242°
2026-05-04 23:48 34.25165 -116.88270 22619 ft 289 kts 242°
2026-05-04 23:48 34.24294 -116.90429 22203 ft 286 kts 242°
2026-05-04 23:48 34.23703 -116.91892 21922 ft 285 kts 242°
2026-05-04 23:48 34.22846 -116.94010 21519 ft 282 kts 242°
2026-05-04 23:49 34.21726 -116.96778 20995 ft 280 kts 242°
2026-05-04 23:49 34.21150 -116.98213 20737 ft 279 kts 244°
2026-05-04 23:49 34.20456 -117.00389 20191 ft 285 kts 249°
2026-05-04 23:49 34.19856 -117.02695 19696 ft 286 kts 249°
2026-05-04 23:50 34.19270 -117.04989 19363 ft 283 kts 250°
2026-05-04 23:50 34.18683 -117.07239 18975 ft 283 kts 249°
2026-05-04 23:50 34.18079 -117.09509 18600 ft 282 kts 249°
2026-05-04 23:50 34.17468 -117.11773 18238 ft 283 kts 250°
2026-05-04 23:51 34.16855 -117.14038 17801 ft 283 kts 250°
2026-05-04 23:51 34.16251 -117.16260 17358 ft 280 kts 249°
2026-05-04 23:51 34.15644 -117.18474 17046 ft 278 kts 250°
2026-05-04 23:51 34.15037 -117.20676 16864 ft 277 kts 250°
2026-05-04 23:52 34.14415 -117.22929 16608 ft 288 kts 250°
2026-05-04 23:52 34.13775 -117.25251 16364 ft 295 kts 250°
2026-05-04 23:52 34.13132 -117.27587 16112 ft 297 kts 250°
2026-05-04 23:52 34.12479 -117.29959 15859 ft 296 kts 250°
2026-05-04 23:53 34.11831 -117.32312 15604 ft 295 kts 250°
2026-05-04 23:53 34.11184 -117.34655 15364 ft 294 kts 250°
2026-05-04 23:53 34.10533 -117.37009 15117 ft 293 kts 250°
2026-05-04 23:53 34.09927 -117.39350 14579 ft 299 kts 252°
2026-05-04 23:54 34.09333 -117.41757 14157 ft 298 kts 252°
2026-05-04 23:54 34.08742 -117.44149 13789 ft 296 kts 252°
2026-05-04 23:54 34.08156 -117.46500 13366 ft 296 kts 252°
2026-05-04 23:54 34.07573 -117.48831 12992 ft 294 kts 252°
2026-05-04 23:55 34.07030 -117.51223 12501 ft 296 kts 256°
2026-05-04 23:55 34.06650 -117.53653 12081 ft 297 kts 259°
2026-05-04 23:55 34.05974 -117.58584 11297 ft 297 kts 259°
2026-05-04 23:56 34.05633 -117.61044 10920 ft 296 kts 259°
2026-05-04 23:56 34.05291 -117.63454 10561 ft 294 kts 259°
2026-05-04 23:56 34.04945 -117.65867 10357 ft 288 kts 259°
2026-05-04 23:56 34.04610 -117.68171 10225 ft 280 kts 259°
2026-05-04 23:57 34.04280 -117.70428 10085 ft 273 kts 259°
2026-05-04 23:57 34.03951 -117.72660 9837 ft 270 kts 259°
2026-05-04 23:57 34.03625 -117.74864 9499 ft 268 kts 259°
2026-05-04 23:57 34.03296 -117.77083 9171 ft 267 kts 259°
2026-05-04 23:58 34.02969 -117.79283 8844 ft 266 kts 259°
2026-05-04 23:58 34.02642 -117.81475 8520 ft 265 kts 259°
2026-05-04 23:58 34.02318 -117.83653 8193 ft 264 kts 259°
2026-05-04 23:58 34.01991 -117.85837 7868 ft 263 kts 259°
2026-05-04 23:59 34.01667 -117.88008 7586 ft 265 kts 259°
2026-05-04 23:59 34.01335 -117.90222 7272 ft 270 kts 259°
2026-05-04 23:59 34.00997 -117.92475 6893 ft 281 kts 260°
2026-05-04 23:59 34.00646 -117.94814 6506 ft 283 kts 260°
2026-05-05 00:00 34.00299 -117.97119 6145 ft 278 kts 260°
2026-05-05 00:00 34.00073 -117.98625 5931 ft 273 kts 260°
2026-05-05 00:00 33.99633 -118.01546 5487 ft 264 kts 260°
2026-05-05 00:00 33.99310 -118.03692 5163 ft 257 kts 260°
2026-05-05 00:01 33.98949 -118.05732 5051 ft 245 kts 258°
2026-05-05 00:01 33.98646 -118.07654 5029 ft 224 kts 261°
2026-05-05 00:01 33.98427 -118.09432 5020 ft 204 kts 263°
2026-05-05 00:01 33.98243 -118.11107 4849 ft 204 kts 263°
2026-05-05 00:02 33.98069 -118.12753 4570 ft 196 kts 263°
2026-05-05 00:02 33.97904 -118.14320 4302 ft 186 kts 263°
2026-05-05 00:02 33.97741 -118.15872 4067 ft 189 kts 263°
2026-05-05 00:02 33.97577 -118.17438 3800 ft 183 kts 262°
2026-05-05 00:03 33.97426 -118.18878 3560 ft 169 kts 262°
2026-05-05 00:03 33.97286 -118.20216 3376 ft 155 kts 262°
2026-05-05 00:03 33.97152 -118.21494 3166 ft 153 kts 262°
2026-05-05 00:03 33.97019 -118.22765 2945 ft 151 kts 261°
2026-05-05 00:04 33.96888 -118.24011 2748 ft 151 kts 262°
2026-05-05 00:04 33.96756 -118.25277 2554 ft 155 kts 261°
2026-05-05 00:04 33.96625 -118.26544 2331 ft 150 kts 261°
2026-05-05 00:04 33.96498 -118.27759 2130 ft 146 kts 261°
2026-05-05 00:05 33.96368 -118.29004 1941 ft 151 kts 261°
2026-05-05 00:05 33.96237 -118.30270 1731 ft 151 kts 261°
2026-05-05 00:05 33.96109 -118.31505 1520 ft 146 kts 260°
2026-05-05 00:05 33.95981 -118.32711 1326 ft 146 kts 261°
2026-05-05 00:06 33.95852 -118.33922 1085 ft 146 kts 261°
2026-05-05 00:06 33.95719 -118.35133 909 ft 144 kts 262°
2026-05-05 00:06 33.95606 -118.36323 693 ft 143 kts 261°
2026-05-05 00:06 33.95486 -118.37461 552 ft 142 kts 262°
2026-05-05 00:07 33.95376 -118.38562 393 ft 145 kts 262°
2026-05-05 00:07 33.95263 -118.39683 215 ft 144 kts 262°
2026-05-05 00:07 33.95144 -118.40834 94 ft 143 kts 262°
2026-05-05 00:07 33.95048 -118.41822 96 ft 112 kts 262°
2026-05-05 00:08 33.94999 -118.42156 93 ft 7 kts 263°